Theta_e
325 325 326 326 327 328 328 329 330 332 333 333 334 334 334 334 334 334 335 336 336 336 337 338 338 337 336 335 335 335 334 334 334 334 334 334 337 338 338 337 336 336 336 335 335 334 335 336 335 336 337 337 337 337 336 336 335 334 334 334 333 333 333
323 325 325 325 326 326 327 328 330 331 332 333 334 334 334 334 335 335 335 336 335 335 336 337 336 336 336 337 338 338 337 337 336 336 336 335 335 336 337 337 336 336 336 335 335 335 334 335 335 335 336 337 337 337 337 336 335 335 334 334 334 333 333
323 324 325 325 325 325 326 327 328 330 331 332 334 334 335 335 335 335 336 336 335 334 335 335 334 334 335 338 339 339 338 338 337 337 338 337 337 337 337 337 337 337 337 336 336 336 335 335 335 334 336 337 337 338 337 337 336 335 335 334 334 334 333
322 324 325 325 325 324 325 326 327 329 331 332 332 334 335 335 335 336 336 337 336 335 334 334 333 333 335 336 336 336 336 335 336 338 338 339 339 338 338 338 337 336 337 336 336 338 337 336 335 335 336 337 336 337 337 337 337 336 335 334 334 335 334
322 323 324 325 325 324 324 325 326 329 331 331 332 333 335 335 336 336 336 336 336 336 335 334 334 334 335 335 334 334 334 334 335 336 337 338 339 338 338 338 336 335 337 337 337 338 338 337 335 335 337 337 336 336 336 337 337 337 336 335 335 335 335
323 324 324 324 325 325 325 325 327 328 330 331 332 333 335 336 335 335 336 336 336 336 336 335 334 334 334 334 334 334 333 333 334 336 336 337 337 337 337 337 335 336 337 338 338 338 338 337 333 333 336 336 335 335 334 335 336 336 336 335 334 335 334
324 325 326 326 326 325 325 326 327 328 329 331 331 332 334 335 335 335 335 336 336 336 336 335 334 334 333 333 333 334 333 333 334 335 336 335 335 335 336 336 337 338 338 338 338 338 339 338 335 334 336 336 335 335 334 335 335 335 336 335 334 334 334
324 325 326 327 327 327 326 327 329 329 330 331 331 331 332 333 334 335 335 336 336 335 335 335 335 335 334 333 333 334 335 334 334 335 335 335 334 335 337 338 338 338 338 337 338 338 338 339 337 335 336 336 336 336 335 335 336 336 336 335 334 334 334
323 324 325 326 328 328 328 329 330 330 331 332 332 332 332 332 333 333 334 335 335 335 335 335 335 334 335 335 335 335 335 335 335 335 335 335 335 336 338 338 338 338 338 337 338 338 338 339 337 334 335 336 336 336 336 336 337 336 335 335 334 334 334
322 323 324 325 326 328 329 329 330 330 331 332 332 333 333 332 332 333 333 334 334 334 334 334 335 334 334 335 336 336 335 335 335 335 334 334 335 338 338 337 337 337 337 337 337 337 338 338 338 337 337 337 336 335 336 336 337 336 336 335 334 335 334
321 322 323 324 325 326 327 328 328 329 330 330 331 332 332 332 332 332 332 332 333 333 333 333 333 333 333 334 334 335 335 335 335 334 334 335 335 337 337 336 336 337 337 337 337 337 337 337 337 338 338 338 337 337 337 337 337 337 337 336 335 335 334
320 321 322 323 324 325 325 326 327 328 329 329 329 330 331 331 332 332 332 332 332 332 333 333 333 332 332 333 333 334 334 334 333 334 335 335 334 335 336 335 336 337 337 338 338 337 337 336 335 337 338 338 338 338 339 338 337 336 337 337 337 336 335
320 321 322 323 323 324 324 325 326 326 327 329 329 328 329 330 331 332 332 332 332 332 332 332 332 332 332 332 332 333 334 333 333 334 335 335 334 335 335 335 336 336 336 338 338 336 335 335 335 336 338 338 338 338 339 339 337 336 337 338 337 337 336
319 320 321 322 323 323 323 324 325 326 326 327 328 328 327 328 329 330 331 331 332 331 331 332 332 332 332 332 332 332 332 333 333 334 335 335 335 335 335 335 335 335 335 335 336 336 335 334 335 337 338 338 338 338 339 339 338 336 336 337 337 337 337
317 318 320 321 321 322 323 323 324 325 326 327 328 328 328 328 329 329 330 331 331 331 331 331 330 331 331 331 332 333 332 332 331 332 333 333 334 334 334 334 334 334 333 333 334 335 334 333 333 334 337 338 338 338 338 338 337 337 337 336 336 337 337
316 317 319 320 320 321 322 322 323 324 325 326 326 326 327 328 328 327 327 327 328 328 328 328 328 328 328 328 329 331 331 331 331 331 331 332 332 332 331 332 332 333 333 333 334 334 334 334 333 332 334 336 337 337 337 337 337 337 338 336 336 337 337
316 317 317 318 318 319 320 321 322 323 323 324 324 324 324 325 326 325 325 324 324 323 323 324 325 325 325 325 327 328 328 329 329 330 330 331 331 331 330 331 332 332 332 333 333 333 334 334 334 333 333 334 335 336 336 337 337 337 337 337 336 335 336
315 316 316 317 317 318 319 320 321 321 322 323 323 323 323 324 324 324 323 322 321 320 319 320 322 323 323 324 325 326 328 328 328 329 329 330 330 331 330 331 331 332 333 333 333 333 333 333 334 334 332 332 334 336 336 337 337 336 336 336 336 335 335
314 315 316 316 317 317 317 318 319 320 320 321 322 322 322 322 321 320 319 319 318 318 319 319 320 320 321 322 323 325 326 328 328 329 329 330 331 331 331 331 331 332 333 333 333 333 333 333 333 332 332 331 332 333 335 336 336 336 336 336 336 336 336
313 314 315 315 315 316 316 317 317 318 319 320 321 321 320 318 318 317 317 317 317 317 318 319 319 319 319 321 322 323 325 327 327 328 328 329 330 331 332 332 332 332 332 332 333 333 333 333 332 332 332 332 331 332 334 336 336 335 334 335 336 336 337
312 312 313 314 314 315 315 315 316 317 318 319 319 319 317 315 315 316 316 316 315 315 316 317 317 317 319 320 320 320 322 325 326 327 328 328 329 330 330 330 331 331 330 330 330 331 331 331 331 331 331 331 331 331 332 334 336 335 332 331 333 336 337
312 312 313 313 313 314 314 314 314 315 316 317 317 317 316 314 312 312 312 313 313 312 311 310 309 310 314 317 319 319 320 323 324 324 325 326 326 327 328 328 329 329 328 328 328 328 328 329 329 329 329 330 330 330 330 330 332 334 333 332 333 335 335
312 312 312 312 313 312 312 312 312 313 313 314 315 315 315 313 312 309 307 307 307 307 305 303 303 305 308 312 315 316 318 321 322 322 323 324 324 325 325 325 326 326 327 326 326 326 326 327 327 327 327 328 328 329 329 330 330 331 331 333 335 334 333
311 311 311 312 311 311 311 311 311 311 311 312 312 312 313 312 312 310 306 304 302 301 300 300 302 304 306 309 311 312 314 318 320 321 321 321 322 322 322 323 324 324 324 324 323 324 324 325 325 326 326 327 327 327 328 328 329 329 328 330 334 333 332
310 310 311 311 310 310 310 310 310 310 310 310 310 310 310 310 310 310 308 305 301 299 298 300 301 303 304 306 307 308 311 314 316 317 317 316 316 318 319 320 321 322 322 321 320 320 321 322 323 324 324 325 326 326 327 327 328 328 327 329 331 331 331
309 309 309 310 309 309 309 309 309 309 309 309 309 309 309 308 308 308 308 307 303 300 299 299 301 302 303 304 304 306 308 310 312 313 312 311 311 313 314 315 317 319 318 317 317 316 316 317 319 320 321 322 323 325 326 327 327 327 327 328 329 330 331
308 308 308 309 309 309 308 308 308 308 308 308 309 308 308 307 307 307 307 307 305 301 298 299 300 302 302 303 303 304 306 308 309 309 309 308 309 310 311 311 313 314 313 311 311 310 310 312 314 315 316 318 321 324 325 326 326 327 328 328 328 329 330
307 308 308 308 308 308 308 308 308 307 308 308 308 308 307 307 306 305 305 306 305 302 298 297 299 301 302 302 303 303 304 306 306 307 306 306 306 308 308 308 309 310 310 307 305 303 303 305 309 310 312 313 316 319 322 324 324 325 326 327 327 328 328
307 307 307 307 307 307 307 307 307 307 307 307 307 307 306 306 305 304 304 303 304 302 298 296 298 300 301 302 302 302 303 304 305 304 304 304 305 306 306 305 305 307 306 304 301 299 299 300 303 305 308 310 312 314 317 320 321 322 322 323 323 324 325
306 306 306 306 306 306 306 306 306 305 306 306 306 306 306 305 304 303 302 301 301 301 299 296 296 298 300 301 301 301 301 303 303 303 303 303 304 305 304 303 303 304 303 300 298 297 297 297 299 302 304 307 309 311 313 316 318 320 321 321 322 322 323
306 306 306 306 306 305 305 305 305 305 305 305 305 305 304 304 304 303 301 300 299 300 299 296 295 295 297 298 298 298 300 301 301 301 301 302 303 304 303 302 301 300 299 297 296 296 295 296 297 299 301 303 305 308 311 313 315 315 316 318 320 321 323
305 305 305 305 305 305 304 304 304 304 304 304 304 304 304 303 303 302 301 300 298 298 298 297 295 294 295 295 295 296 298 299 298 299 300 301 302 303 303 302 301 299 298 296 295 294 294 295 296 297 299 301 304 306 308 308 308 307 308 309 312 314 317
304 304 304 304 304 304 304 304 304 304 304 304 304 304 303 303 302 301 300 300 299 298 298 297 295 294 294 294 294 295 296 297 296 296 298 300 301 302 301 301 300 298 295 293 292 292 294 295 296 297 299 300 301 302 302 301 301 302 303 304 306 308 311
304 303 303 303 303 303 303 303 303 304 304 304 304 303 303 303 302 301 301 300 299 299 298 297 296 294 294 294 293 293 294 294 293 294 298 300 300 301 300 299 298 296 293 291 291 291 293 294 296 297 298 297 297 298 298 299 300 301 302 304 307 309 311
303 303 303 303 303 303 303 302 303 303 303 304 303 303 303 303 302 302 301 300 300 299 298 297 296 295 294 293 293 292 292 292 292 294 298 300 300 299 298 297 296 293 291 291 291 291 292 293 293 294 294 295 297 299 300 301 302 303 304 306 308 310 312
302 302 302 302 302 302 302 302 302 302 303 303 303 303 302 302 302 302 301 301 300 299 299 298 297 295 294 293 293 292 292 291 291 293 297 299 299 298 296 295 293 292 291 292 292 292 292 292 292 293 293 294 296 298 300 301 302 303 304 307 309 311 313
301 301 301 302 302 302 302 302 302 302 302 302 302 302 301 301 301 301 301 301 300 299 299 298 297 295 293 292 292 292 292 292 292 292 295 297 297 296 295 293 291 291 292 292 292 293 293 293 293 293 293 294 296 297 298 298 299 300 302 304 306 308 309
Wind_Speed
14 14 14 14 13 12 12 12 12 12 12 13 14 14 14 16 17 17 18 19 19 20 19 19 21 22 21 19 19 20 20 20 21 21 20 17 17 16 15 17 19 19 20 20 18 14 8 5 8 13 15 16 17 18 18 17 17 16 16 16 15 15 16
14 15 15 14 13 13 13 12 11 12 12 12 13 14 14 15 17 18 19 19 20 21 20 20 21 22 21 18 17 18 17 18 19 19 18 18 18 16 14 15 17 18 19 20 21 20 15 10 8 8 11 13 15 17 18 17 17 16 16 16 16 15 15
15 15 15 15 14 13 13 12 11 11 11 12 13 13 14 15 16 18 18 18 20 21 20 20 21 21 19 17 16 15 15 16 18 18 17 17 17 16 15 15 15 16 16 16 18 19 17 14 11 9 10 11 11 14 19 19 18 17 16 16 17 16 15
15 15 15 15 15 14 13 12 11 11 11 11 12 13 13 14 14 16 17 17 18 20 19 19 20 18 17 17 15 14 16 18 19 19 17 17 16 16 16 16 17 17 14 13 16 15 13 12 10 10 10 10 10 13 16 18 18 17 17 17 17 17 17
15 15 15 15 15 14 13 12 11 11 11 10 11 12 12 12 13 14 15 16 16 17 19 20 19 17 18 21 18 16 17 20 21 20 18 18 17 16 17 17 19 20 17 16 15 14 14 12 7 8 10 10 12 12 10 13 16 16 16 17 17 18 17
14 14 14 14 14 13 12 11 11 11 10 10 10 11 10 10 11 13 14 15 16 16 17 19 20 20 20 22 21 20 21 21 21 20 20 19 18 18 18 17 18 19 17 17 15 15 17 13 9 9 12 10 9 12 12 10 12 14 15 15 16 17 17
12 12 12 12 12 11 10 10 11 11 11 10 10 10 10 10 11 12 14 15 16 15 15 16 18 20 21 22 23 23 23 23 21 20 20 21 21 21 19 16 16 17 16 16 16 16 18 15 13 13 11 8 9 13 15 12 11 11 12 13 14 15 15
11 11 10 10 10 10 10 10 10 11 11 11 11 10 10 10 11 12 13 14 15 15 15 16 17 18 18 20 22 21 20 21 21 21 20 19 22 22 19 17 16 16 16 16 17 17 18 16 16 16 13 8 8 11 11 10 11 12 12 11 12 13 14
11 11 10 11 11 10 9 9 9 10 11 11 11 10 10 10 11 12 13 14 14 15 15 16 17 18 17 17 18 18 18 19 20 20 18 19 22 21 18 17 17 16 15 15 16 17 17 17 16 18 18 13 9 8 7 8 8 9 11 11 11 12 12
12 11 11 11 11 10 9 8 8 9 10 11 11 10 10 10 10 11 13 13 13 15 17 17 17 18 19 18 18 17 18 20 20 20 19 19 21 18 17 16 15 15 14 14 16 16 16 17 17 17 17 15 12 9 7 6 6 7 8 9 9 9 10
13 12 11 12 11 11 11 10 9 9 9 10 10 10 9 10 10 10 11 12 12 13 16 17 18 20 20 20 20 20 20 20 20 21 21 21 20 18 17 16 15 15 15 14 16 15 15 17 17 17 16 16 15 13 9 7 6 8 9 9 9 9 8
13 12 12 12 11 11 11 11 11 10 10 10 9 9 9 9 9 9 10 11 11 12 13 15 17 19 20 20 21 22 22 21 22 25 24 23 21 18 16 16 15 15 15 14 14 15 16 17 18 18 16 15 15 15 14 11 8 9 10 9 9 9 10
14 13 12 12 11 11 11 11 12 11 11 11 10 10 9 8 8 8 9 9 10 11 12 13 15 17 19 21 22 24 25 24 24 25 23 21 18 16 15 14 13 14 14 14 14 16 17 17 19 18 16 15 15 15 16 14 10 10 11 11 11 11 12
14 14 13 12 11 11 11 11 12 12 11 11 11 11 10 8 8 8 8 9 9 10 11 12 13 14 16 18 20 23 24 22 21 19 17 16 14 12 11 10 11 14 15 14 15 16 16 17 19 18 16 15 16 15 16 16 13 11 12 13 13 13 13
14 14 14 12 12 12 11 11 12 12 12 11 10 10 10 9 8 7 7 8 8 10 11 12 13 13 15 16 17 18 18 16 15 15 14 13 11 10 11 11 12 15 15 15 16 16 17 19 19 20 19 17 17 16 16 16 15 13 13 13 13 14 13
14 14 14 13 13 13 12 12 12 12 12 12 11 11 10 10 9 9 8 8 9 11 11 11 12 13 14 14 13 12 11 11 12 12 12 13 12 12 13 14 14 14 15 16 17 19 21 21 21 24 23 19 17 17 16 17 17 15 14 14 14 14 14
12 13 14 13 14 14 13 13 13 12 13 12 12 12 12 12 12 11 11 10 11 13 14 13 14 14 12 11 10 9 8 9 11 9 9 12 13 12 14 15 15 15 16 17 19 21 22 21 23 25 24 21 20 18 18 18 18 17 15 14 14 14 14
11 12 12 13 13 14 14 14 13 13 14 13 13 13 13 13 12 13 13 13 13 15 16 16 17 18 17 15 13 13 11 10 10 9 8 9 11 11 12 14 15 16 16 17 19 20 20 20 22 24 24 24 24 21 19 19 18 17 17 16 15 14 14
11 12 12 12 13 13 13 13 13 13 13 13 13 13 13 13 13 15 16 15 15 16 16 17 18 20 20 19 17 16 13 10 10 9 8 8 10 11 12 13 14 15 16 17 18 19 19 18 19 21 22 26 28 24 20 19 18 17 17 16 16 15 15
11 11 11 12 13 13 13 13 13 13 12 12 13 15 15 14 14 14 15 15 15 15 15 15 16 17 19 19 19 17 15 13 12 12 11 10 10 11 12 13 13 14 16 17 17 18 18 18 18 18 19 23 28 26 21 18 16 16 16 16 16 16 15
11 11 11 11 12 12 12 12 13 13 13 13 13 14 14 14 13 14 15 16 15 14 14 14 14 14 14 16 18 18 16 15 14 14 13 13 12 12 13 13 14 16 17 18 19 17 17 18 19 19 19 20 24 25 23 19 16 15 16 19 20 18 16
10 11 11 11 12 12 12 12 12 12 13 13 12 12 13 13 13 14 16 16 16 16 17 16 16 14 12 13 14 15 14 14 15 14 14 15 14 14 14 14 14 15 16 17 19 19 18 17 18 20 22 22 22 23 23 22 19 15 15 18 20 18 17
9 10 11 11 12 12 11 11 12 12 12 12 12 12 12 12 12 13 16 17 17 19 20 19 16 13 11 11 12 11 11 12 14 14 14 15 14 15 15 14 14 14 15 15 14 13 12 11 12 15 18 19 20 21 21 19 20 19 16 16 16 16 16
9 9 10 11 12 12 11 11 11 12 12 12 12 12 12 12 11 12 13 15 18 20 21 20 17 14 11 10 11 11 9 10 12 13 13 13 13 14 14 14 14 14 14 14 14 12 10 8 9 10 11 13 15 17 18 18 19 19 19 19 17 16 16
8 9 9 10 11 12 11 11 12 12 12 12 12 12 12 12 12 11 11 12 15 18 22 23 20 17 14 11 11 11 9 10 10 10 11 12 12 12 13 13 14 12 13 14 15 15 14 13 13 13 14 15 15 14 14 15 16 16 18 20 19 18 18
7 8 8 9 10 11 11 11 12 11 11 11 11 11 12 11 11 11 11 11 12 15 22 25 22 20 17 13 11 10 9 9 9 9 10 11 11 12 12 12 12 11 14 16 16 16 18 17 17 17 17 17 16 15 14 14 15 15 16 18 20 22 23
7 7 8 8 9 10 11 11 11 11 10 10 10 10 11 11 12 12 12 12 12 13 20 25 23 20 19 15 12 12 11 10 9 9 10 10 11 11 11 12 11 11 13 16 17 18 20 21 20 20 19 17 15 14 14 15 16 16 15 15 18 21 23
7 7 7 8 9 9 10 11 11 10 10 10 10 10 10 10 11 12 12 12 11 11 17 25 24 20 19 17 13 13 12 11 10 10 10 11 11 10 11 12 11 10 11 14 17 19 20 21 21 21 20 20 19 18 16 15 16 16 16 16 18 21 23
7 7 7 8 9 9 10 10 10 9 9 9 9 9 9 10 11 12 13 13 12 10 15 25 26 21 19 17 14 14 13 12 12 12 11 12 11 9 11 13 12 11 11 13 18 20 20 19 18 18 19 19 20 20 20 19 18 20 21 20 22 24 25
7 7 7 8 8 8 9 9 9 9 8 8 9 8 9 9 10 12 13 13 13 11 14 23 28 25 22 19 15 15 15 12 13 14 13 13 12 9 10 12 12 11 11 15 21 23 20 18 17 16 17 18 18 19 20 20 18 18 19 20 21 24 25
7 7 7 7 7 8 8 8 8 8 8 8 8 8 8 8 9 11 12 13 13 12 13 20 27 28 26 23 18 15 15 13 13 15 14 13 12 10 10 12 12 11 14 19 24 23 18 16 16 15 15 17 18 17 17 16 16 17 18 19 20 21 23
6 7 7 7 7 7 8 8 8 8 7 8 8 8 8 8 9 10 11 11 13 13 13 17 24 28 28 27 23 16 14 15 14 15 15 14 13 11 11 12 12 14 18 23 24 21 16 15 16 15 14 15 16 15 15 17 19 20 22 23 24 24 25
6 7 7 7 7 7 7 8 8 8 8 8 9 9 8 8 9 10 10 11 11 12 13 16 21 25 27 28 26 19 15 16 16 16 15 14 13 13 13 12 14 19 23 23 22 20 16 14 15 14 11 12 14 16 19 23 23 22 22 24 25 26 27
6 6 6 6 6 6 7 8 8 8 8 8 9 9 8 8 9 9 9 10 10 10 11 14 18 22 24 26 26 23 17 16 17 16 14 14 13 13 14 14 15 20 23 24 22 19 16 15 14 12 11 14 17 20 23 25 24 21 20 21 21 22 22
5 5 5 6 6 6 6 7 8 7 7 7 8 8 8 8 8 8 8 9 10 9 10 13 16 20 22 23 23 23 19 17 18 15 13 15 14 13 15 15 16 19 24 25 23 19 18 18 16 14 15 16 17 17 18 19 18 17 17 18 19 19 18
4 4 5 5 5 6 6 6 7 7 7 6 6 7 8 7 7 7 7 7 8 8 9 12 15 18 20 21 21 21 19 19 21 16 12 14 15 14 15 17 18 20 24 26 24 21 19 20 19 19 19 18 15 14 15 15 14 15 16 17 18 18 17
4 4 4 4 5 6 6 5 6 6 6 6 6 6 7 7 7 7 6 6 7 7 7 9 12 16 19 19 19 19 19 19 21 18 13 13 14 13 15 19 21 21 22 24 24 20 18 20 22 23 24 22 18 16 15 16 16 16 16 16 16 17 18
Wind_Direction
287 285 284 283 281 281 284 288 288 285 280 274 265 255 246 241 239 238 237 238 237 235 231 229 229 225 223 220 216 217 222 225 226 230 234 230 229 231 228 231 238 243 247 247 247 251 251 240 228 228 232 230 224 221 220 226 230 231 231 231 234 232 227
290 287 285 281 278 277 280 284 286 284 282 276 265 257 249 243 239 236 235 235 236 237 235 236 239 237 232 226 217 214 218 225 228 229 231 231 233 234 228 230 236 239 242 243 242 243 245 249 238 223 225 223 222 224 223 225 230 232 233 232 234 236 233
291 289 286 281 278 276 277 281 283 283 281 277 269 259 250 245 241 238 237 236 236 237 236 237 244 247 242 236 229 222 221 227 231 229 227 229 232 234 234 236 238 238 239 239 238 237 240 246 248 240 228 214 214 222 220 221 228 231 233 232 232 235 234
292 291 288 284 281 277 275 279 282 282 280 279 278 270 258 250 246 243 240 238 238 240 238 235 239 246 248 248 243 234 232 236 238 234 227 227 229 231 233 237 242 242 240 240 238 233 234 240 249 255 246 241 249 239 217 213 223 231 233 232 231 232 232
296 293 289 286 285 281 278 278 280 280 279 278 279 274 266 258 252 249 246 243 240 238 235 232 233 237 245 251 246 232 232 238 241 243 238 230 226 227 230 232 239 245 243 244 244 238 236 231 234 266 270 262 267 266 238 213 218 229 235 235 233 233 233
311 305 297 289 284 281 278 277 276 278 280 280 279 275 270 264 258 254 251 247 243 240 233 230 232 235 241 249 246 235 233 234 234 240 244 240 231 226 228 230 236 242 243 245 246 245 245 230 205 240 264 261 267 277 268 237 225 232 235 236 235 235 235
328 325 316 306 296 288 283 279 277 279 281 281 282 281 275 269 263 258 254 249 246 246 240 234 234 236 239 245 245 239 238 237 232 231 236 242 241 232 227 227 230 234 237 240 240 239 245 238 217 225 244 251 257 265 265 254 244 242 237 236 237 235 235
338 340 340 336 326 314 304 295 289 287 288 288 286 286 281 270 264 262 260 257 254 250 245 241 238 236 237 242 243 239 238 238 234 230 230 237 242 237 228 223 224 230 234 236 239 237 241 242 233 231 234 239 247 251 256 255 250 248 245 244 241 236 235
343 346 348 348 346 339 329 318 306 299 297 297 293 291 286 275 268 266 265 263 262 255 248 245 243 242 242 242 243 239 235 235 234 230 226 230 237 236 230 226 226 232 235 236 239 240 241 243 240 237 234 235 245 252 252 251 251 253 249 247 246 240 236
342 346 347 345 346 346 345 340 328 317 309 304 300 296 290 284 277 273 270 266 263 258 254 250 249 249 249 248 250 246 240 239 237 230 223 227 234 234 231 231 231 234 236 235 237 240 242 244 242 240 237 235 242 254 261 256 254 256 252 252 255 249 239
338 341 344 344 344 344 347 348 343 339 331 320 312 305 299 292 282 275 273 269 263 259 256 252 251 251 249 249 251 249 245 243 237 230 223 224 230 232 230 230 230 234 237 236 237 240 243 245 243 240 239 238 239 244 254 261 258 255 255 255 258 258 250
338 337 339 340 341 341 342 342 342 343 342 336 330 319 307 296 285 279 276 273 268 262 258 254 251 250 249 249 248 245 243 238 231 227 224 222 226 228 228 229 229 232 237 239 240 241 244 249 250 246 240 238 238 239 246 254 258 252 248 249 254 257 254
340 340 340 339 339 340 340 340 339 340 340 341 343 336 323 308 298 290 282 278 274 268 264 258 253 250 251 250 248 246 243 236 229 227 225 223 224 227 230 234 236 239 243 247 246 242 242 246 250 248 243 238 235 234 238 245 253 253 248 249 255 255 253
341 344 344 343 344 344 343 343 342 340 340 342 345 345 342 333 316 301 290 285 282 277 272 267 260 254 252 250 249 249 247 240 234 235 235 233 232 235 240 245 248 248 251 257 258 250 244 247 252 251 247 242 238 232 231 237 248 256 253 248 251 254 253
340 344 345 348 352 351 349 348 345 343 342 343 345 349 351 345 329 312 300 291 285 283 280 279 277 268 261 259 257 256 255 253 253 255 254 250 249 249 248 250 253 252 248 250 257 256 248 247 252 254 250 242 239 237 232 236 246 253 255 249 246 250 250
339 343 345 349 353 354 353 351 349 347 344 342 344 348 349 346 341 335 327 321 320 319 316 317 313 302 292 288 281 275 272 270 269 264 254 251 254 253 252 255 256 255 251 244 245 248 247 244 246 252 254 249 242 240 235 236 242 248 254 254 249 248 248
340 344 346 349 352 354 354 354 352 349 347 346 347 348 350 353 356 359 359 358 359 358 359 1 355 348 347 339 326 321 308 287 280 274 258 255 257 253 253 256 254 256 257 252 248 247 245 243 242 247 255 258 253 246 240 238 240 244 251 255 253 252 252
347 349 350 352 357 358 358 358 356 353 353 355 355 356 1 9 18 27 34 36 33 26 20 16 12 11 13 9 359 350 334 308 297 291 277 270 269 264 261 260 259 258 257 254 256 255 249 244 244 244 249 255 255 251 246 244 242 243 249 255 257 256 254
356 357 357 357 1 3 3 3 2 1 1 0 3 13 27 37 41 44 45 43 38 30 22 16 11 9 9 8 5 360 348 332 317 302 289 280 278 279 276 271 266 264 263 261 261 263 261 255 250 248 247 251 255 253 247 245 246 247 249 253 258 260 255
360 0 2 2 4 6 7 7 8 8 8 10 15 27 41 47 45 45 45 40 35 27 17 9 4 4 5 2 359 356 348 341 334 322 310 300 292 287 282 279 276 272 271 273 271 268 269 269 269 265 260 260 263 262 255 247 247 252 259 262 261 259 257
0 1 5 7 9 10 9 10 13 14 15 20 25 32 41 43 41 42 41 35 32 28 22 14 8 7 5 360 355 352 346 341 338 333 326 321 313 303 297 296 297 293 287 286 289 286 279 277 279 278 275 275 277 278 276 269 257 248 254 261 261 257 256
3 4 8 11 13 13 12 12 15 19 22 25 28 31 36 40 40 40 39 34 31 32 33 27 19 11 5 358 353 349 345 340 339 338 335 333 330 323 319 317 315 315 312 306 306 305 296 288 286 285 284 285 285 283 282 282 278 264 248 249 254 257 260
9 11 13 14 15 15 15 15 16 22 26 27 29 28 28 33 35 34 35 34 32 34 33 28 20 10 2 356 348 345 343 337 335 336 334 332 334 334 333 331 331 338 340 335 333 331 320 307 297 291 289 288 286 283 280 280 282 282 277 267 260 261 265
15 17 17 18 17 15 16 19 20 24 27 28 30 28 27 29 29 27 29 32 34 33 28 23 19 11 4 356 349 350 349 337 333 335 336 336 334 333 335 334 334 341 343 339 338 339 336 326 312 301 293 287 284 284 281 277 277 280 279 272 260 253 258
17 18 19 19 17 15 16 21 23 25 28 28 30 31 30 30 31 29 25 28 33 29 22 19 17 14 12 6 360 1 355 341 338 338 340 342 339 337 337 334 334 340 338 331 329 329 325 318 311 305 301 298 294 293 291 286 283 280 271 264 261 257 255
20 20 20 20 18 17 17 21 23 24 26 28 31 34 34 32 31 31 28 29 31 24 17 16 13 12 14 11 7 10 360 345 345 345 343 344 343 344 345 341 341 343 337 330 328 329 326 318 313 308 303 304 302 299 299 295 292 289 277 267 265 263 259
23 24 24 22 22 21 18 19 20 21 23 27 29 32 33 32 31 29 28 30 28 20 15 13 10 10 12 9 10 15 5 353 352 350 350 352 349 350 353 350 347 348 347 339 333 333 329 321 318 317 314 311 307 299 295 294 295 297 290 278 270 267 265
26 27 26 24 25 25 21 17 16 17 20 23 25 27 28 30 31 29 28 28 27 21 14 11 11 12 10 7 13 16 4 355 357 355 354 358 358 357 359 358 351 354 1 350 339 339 337 325 317 318 317 312 306 300 295 289 286 286 286 282 277 275 274
28 28 27 28 27 24 22 19 16 15 17 22 24 24 27 30 30 31 30 27 26 24 12 10 13 16 11 9 16 15 2 354 356 356 355 358 1 360 2 5 359 356 4 353 338 338 340 332 323 320 317 312 306 302 297 290 286 285 284 282 279 277 276
25 26 28 29 27 22 20 18 17 14 15 22 24 22 28 32 32 33 31 27 27 25 10 9 17 22 17 16 22 13 359 355 354 352 353 355 356 359 3 6 3 0 3 350 336 335 339 339 335 325 317 313 309 304 299 298 298 296 292 288 284 280 276
25 27 28 28 26 23 20 17 15 13 14 21 24 24 29 34 36 36 33 29 30 30 15 8 17 24 23 24 31 19 358 357 356 351 352 352 352 357 358 355 358 2 356 340 331 333 342 345 338 327 319 315 310 306 307 311 313 307 296 288 283 280 276
28 29 30 30 26 22 22 19 16 17 20 24 27 29 31 36 40 38 34 33 32 34 27 9 11 21 24 26 32 25 2 0 360 352 352 351 349 355 356 348 342 336 332 331 331 338 350 352 340 326 317 314 309 306 313 319 317 312 303 293 286 283 280
35 34 33 33 29 26 25 22 19 22 28 32 32 32 34 40 43 39 35 35 33 33 31 14 7 15 22 25 29 27 13 6 3 354 351 350 348 351 352 350 339 328 330 339 347 350 356 359 347 332 323 320 313 309 311 311 308 306 303 298 292 289 285
40 38 36 34 34 33 30 25 23 26 34 39 37 34 36 41 45 45 41 36 32 26 22 13 6 9 17 22 24 23 17 7 1 355 348 349 353 350 349 351 341 334 343 355 360 360 2 2 355 343 333 323 310 303 306 307 306 303 300 296 293 291 287
44 40 38 36 37 37 34 31 29 29 34 41 40 37 39 40 40 44 44 38 34 22 7 3 360 2 10 17 18 19 17 8 4 359 347 349 357 353 351 352 342 342 357 5 4 7 8 3 358 350 339 329 317 311 314 312 307 304 302 299 296 293 291
47 41 36 36 37 35 32 31 32 31 30 35 41 40 40 38 35 35 34 30 30 23 7 358 351 351 1 11 12 13 13 8 7 4 347 347 355 352 351 351 344 350 5 7 5 9 9 1 359 357 354 352 348 342 338 332 323 316 312 307 301 297 296
45 40 33 31 32 32 29 24 27 30 28 29 35 38 35 32 27 22 21 19 15 10 5 359 346 342 351 2 5 7 9 5 3 2 352 342 344 343 345 347 349 356 3 0 1 7 6 1 1 2 3 6 6 357 350 347 343 336 328 321 316 313 312